Weather in Mushkovichi

Russia / Smolensk Oblast     55°03′34″N   32°30′44″E
temp.,
°C
wind,
m/s
gust,
m/s
humid.,
%
clouds,
%
prec.,
mm/h
press.,
hPa
HPBL,
m
6 march, sat
sat600:00−5nw388294 0.0 1017481
03:00−7nw258797 0.0 1019185
06:00−9wnw259314 0.0 1019108
09:00−8wnw37867 0.0 1020303
12:00−4wnw476726 0.0 10201231
15:00−3wnw576563 0.1 10181396
18:00−5w387597 0.1 1017398
21:00−7wsw4117859 0.1 1016369
7 march, sun
sun700:00−6wsw6148095 0.0 1012795
03:00−4wsw8159198 0.6 10081030
06:00−4sw91692100 1.8 10021087
09:00−2wsw101990100 3.7 9971312
12:00−1nw81293100 1.8 997996
15:00−2wnw61250100 2.5 9992107
18:00−4w6126967 0.1 9991398
21:00−5wsw7167547 0.1 9971234
8 march, mon
mon800:00−6wnw91572100 0.9 9971422
03:00−9wnw8178480 0.9 10011178
06:00−9nw6128494 0.4 1004849
09:00−9nw6128664 0.4 1006817
12:00−7wnw588098 0.1 1008912
15:00−5nw587999 0.2 10091146
18:00−7nnw4883100 0.1 1011671
21:00−10nnw379397 0.1 1013223
9 march, tue
tue900:00−11nnw269597 0.0 1015225
03:00−11nnw269499 0.0 1016255
06:00−12nnw379592 0.0 1017234
09:00−13nnw478974 0.0 1019415
12:00−11nnw357865 0.0 1020611
15:00−8nw357052 0.0 1021837
18:00−9nw248240 0.0 1021129
21:00−11wsw228751 0.0 102246
10 march, wed
wed1000:00−10ssw4894100 0.6 1021364
03:00−8sw41094100 1.8 1019607
06:00−6w61394100 1.1 1018804
09:00−5wnw51092100 1.9 1019681
12:00−9ene5893100 1.0 1021342
15:00−9e4791100 1.5 1022444
18:00−9e4793100 0.5 1022484
21:00−11ese4894100 0.8 1024404